owner,sensor,date,latitude,longitude,vertical_datum,mass_concentration_of_oxygen_in_sea_water,qcFlag 
SCCF RECON,ioos:station:SCCF:53:1,2009-11-01T00:00:00Z,26.6493,-81.8810,1.0,-9999.0,1111122 
SCCF RECON,ioos:station:SCCF:53:1,2009-11-01T01:00:00Z,26.6493,-81.8810,1.0,-9999.0,1111122 
SCCF RECON,ioos:station:SCCF:53:1,2009-11-01T02:00:00Z,26.6493,-81.8810,1.0,-9999.0,1111122 
SCCF RECON,ioos:station:SCCF:53:1,2009-11-01T03:00:00Z,26.6493,-81.8810,1.0,-9999.0,1111122 
SCCF RECON,ioos:station:SCCF:53:1,2009-11-01T04:00:00Z,26.6493,-81.8810,1.0,-9999.0,1111122 
SCCF RECON,ioos:station:SCCF:53:1,2009-11-01T05:00:00Z,26.6493,-81.8810,1.0,-9999.0,1111122 
SCCF RECON,ioos:station:SCCF:53:1,2009-11-01T06:00:00Z,26.6493,-81.8810,1.0,-9999.0,1111122 
SCCF RECON,ioos:station:SCCF:53:1,2009-11-01T07:00:00Z,26.6493,-81.8810,1.0,-9999.0,1111122 
SCCF RECON,ioos:station:SCCF:53:1,2009-11-01T08:00:00Z,26.6493,-81.8810,1.0,-9999.0,1111122 
SCCF RECON,ioos:station:SCCF:53:1,2009-11-01T09:00:00Z,26.6493,-81.8810,1.0,-9999.0,1111122 
SCCF RECON,ioos:station:SCCF:53:1,2009-11-01T10:00:00Z,26.6493,-81.8810,1.0,-9999.0,1111122 
SCCF RECON,ioos:station:SCCF:53:1,2009-11-01T11:00:00Z,26.6493,-81.8810,1.0,-9999.0,1111122 
SCCF RECON,ioos:station:SCCF:53:1,2009-11-01T12:00:00Z,26.6493,-81.8810,1.0,-9999.0,1111122 
SCCF RECON,ioos:station:SCCF:53:1,2009-11-01T13:00:00Z,26.6493,-81.8810,1.0,-9999.0,1111122 
SCCF RECON,ioos:station:SCCF:53:1,2009-11-01T14:00:00Z,26.6493,-81.8810,1.0,-9999.0,1111122 
SCCF RECON,ioos:station:SCCF:53:1,2009-11-01T15:00:00Z,26.6493,-81.8810,1.0,-9999.0,1111122 
SCCF RECON,ioos:station:SCCF:53:1,2009-11-01T16:00:00Z,26.6493,-81.8810,1.0,-9999.0,1111122 
SCCF RECON,ioos:station:SCCF:53:1,2009-11-01T17:00:00Z,26.6493,-81.8810,1.0,-9999.0,1111122 
SCCF RECON,ioos:station:SCCF:53:1,2009-11-01T18:00:00Z,26.6493,-81.8810,1.0,-9999.0,1111122 
SCCF RECON,ioos:station:SCCF:53:1,2009-11-01T19:00:00Z,26.6493,-81.8810,1.0,-9999.0,1111122 
SCCF RECON,ioos:station:SCCF:53:1,2009-11-01T20:00:00Z,26.6493,-81.8810,1.0,-9999.0,1111122 
SCCF RECON,ioos:station:SCCF:53:1,2009-11-01T21:00:00Z,26.6493,-81.8810,1.0,-9999.0,1111122 
SCCF RECON,ioos:station:SCCF:53:1,2009-11-01T22:00:00Z,26.6493,-81.8810,1.0,-9999.0,1111122 
SCCF RECON,ioos:station:SCCF:53:1,2009-11-01T23:00:00Z,26.6493,-81.8810,1.0,-9999.0,1111122 
SCCF RECON,ioos:station:SCCF:53:1,2009-11-02T00:00:00Z,26.6493,-81.8810,1.0,-9999.0,1111122 
SCCF RECON,ioos:station:SCCF:53:1,2009-11-02T01:00:00Z,26.6493,-81.8810,1.0,-9999.0,1111122 
SCCF RECON,ioos:station:SCCF:53:1,2009-11-02T02:00:00Z,26.6493,-81.8810,1.0,-9999.0,1111122 
SCCF RECON,ioos:station:SCCF:53:1,2009-11-02T03:00:00Z,26.6493,-81.8810,1.0,-9999.0,1111122 
SCCF RECON,ioos:station:SCCF:53:1,2009-11-02T04:00:00Z,26.6493,-81.8810,1.0,-9999.0,1111122 
SCCF RECON,ioos:station:SCCF:53:1,2009-11-02T05:00:00Z,26.6493,-81.8810,1.0,-9999.0,1111122 
SCCF RECON,ioos:station:SCCF:53:1,2009-11-02T06:00:00Z,26.6493,-81.8810,1.0,-9999.0,1111122 
SCCF RECON,ioos:station:SCCF:53:1,2009-11-02T07:00:00Z,26.6493,-81.8810,1.0,-9999.0,1111122 
SCCF RECON,ioos:station:SCCF:53:1,2009-11-02T08:00:00Z,26.6493,-81.8810,1.0,-9999.0,1111122 
SCCF RECON,ioos:station:SCCF:53:1,2009-11-02T09:00:00Z,26.6493,-81.8810,1.0,-9999.0,1111122 
SCCF RECON,ioos:station:SCCF:53:1,2009-11-02T10:00:00Z,26.6493,-81.8810,1.0,-9999.0,1111122 
SCCF RECON,ioos:station:SCCF:53:1,2009-11-02T11:00:00Z,26.6493,-81.8810,1.0,-9999.0,1111122 
SCCF RECON,ioos:station:SCCF:53:1,2009-11-02T12:00:00Z,26.6493,-81.8810,1.0,-9999.0,1111122 
SCCF RECON,ioos:station:SCCF:53:1,2009-11-02T13:00:00Z,26.6493,-81.8810,1.0,-9999.0,1111122 
SCCF RECON,ioos:station:SCCF:53:1,2009-11-02T14:00:00Z,26.6493,-81.8810,1.0,-9999.0,1111122 
SCCF RECON,ioos:station:SCCF:53:1,2009-11-02T15:00:00Z,26.6493,-81.8810,1.0,-9999.0,1111122 
SCCF RECON,ioos:station:SCCF:53:1,2009-11-02T16:00:00Z,26.6493,-81.8810,1.0,-9999.0,1111122 
SCCF RECON,ioos:station:SCCF:53:1,2009-11-02T18:00:00Z,26.6493,-81.8810,2.181,5.32,1111122 
SCCF RECON,ioos:station:SCCF:53:1,2009-11-02T19:00:00Z,26.6493,-81.8810,2.241,5.94,1111122 
SCCF RECON,ioos:station:SCCF:53:1,2009-11-02T20:00:00Z,26.6493,-81.8810,2.301,5.26,1111122 
SCCF RECON,ioos:station:SCCF:53:1,2009-11-02T21:00:00Z,26.6493,-81.8810,2.33,5.68,1111122 
SCCF RECON,ioos:station:SCCF:53:1,2009-11-02T22:00:00Z,26.6493,-81.8810,2.33,6.21,1111122 
SCCF RECON,ioos:station:SCCF:53:1,2009-11-02T23:00:00Z,26.6493,-81.8810,2.299,6.79,1111122 
SCCF RECON,ioos:station:SCCF:53:1,2009-11-03T00:00:00Z,26.6493,-81.8810,2.26,6.33,1111122 
SCCF RECON,ioos:station:SCCF:53:1,2009-11-03T01:00:00Z,26.6493,-81.8810,2.23,6.12,1111122 
SCCF RECON,ioos:station:SCCF:53:1,2009-11-03T02:00:00Z,26.6493,-81.8810,2.21,6.33,1111122 
SCCF RECON,ioos:station:SCCF:53:1,2009-11-03T03:00:00Z,26.6493,-81.8810,2.25,4.38,1111122 
SCCF RECON,ioos:station:SCCF:53:1,2009-11-03T04:00:00Z,26.6493,-81.8810,2.318,5.53,1111122 
SCCF RECON,ioos:station:SCCF:53:1,2009-11-03T05:00:00Z,26.6493,-81.8810,2.37,6.09,1111122 
SCCF RECON,ioos:station:SCCF:53:1,2009-11-03T06:00:00Z,26.6493,-81.8810,2.43,5.48,1111122 
SCCF RECON,ioos:station:SCCF:53:1,2009-11-03T07:00:00Z,26.6493,-81.8810,2.48,5.65,1111122 
SCCF RECON,ioos:station:SCCF:53:1,2009-11-03T08:00:00Z,26.6493,-81.8810,2.49,5.74,1111122 
SCCF RECON,ioos:station:SCCF:53:1,2009-11-03T09:00:00Z,26.6493,-81.8810,2.44,5.94,1111122 
SCCF RECON,ioos:station:SCCF:53:1,2009-11-03T10:00:00Z,26.6493,-81.8810,2.37,6.15,1111122 
SCCF RECON,ioos:station:SCCF:53:1,2009-11-03T11:00:00Z,26.6493,-81.8810,2.31,5.6,1111122 
SCCF RECON,ioos:station:SCCF:53:1,2009-11-03T12:00:00Z,26.6493,-81.8810,2.25,5.55,1111122 
SCCF RECON,ioos:station:SCCF:53:1,2009-11-03T13:00:00Z,26.6493,-81.8810,2.189,5.63,1111122 
SCCF RECON,ioos:station:SCCF:53:1,2009-11-03T15:00:00Z,26.6493,-81.8810,2.07,5.75,1111122 
SCCF RECON,ioos:station:SCCF:53:1,2009-11-03T16:00:00Z,26.6493,-81.8810,2.03,5.11,1111122 
SCCF RECON,ioos:station:SCCF:53:1,2009-11-03T17:00:00Z,26.6493,-81.8810,2.042,5.23,1111122 
SCCF RECON,ioos:station:SCCF:53:1,2009-11-03T18:00:00Z,26.6493,-81.8810,2.09,5.27,1111122 
SCCF RECON,ioos:station:SCCF:53:1,2009-11-03T19:00:00Z,26.6493,-81.8810,2.14,5.57,1111122 
SCCF RECON,ioos:station:SCCF:53:1,2009-11-03T20:00:00Z,26.6493,-81.8810,2.2,5.83,1111122 
SCCF RECON,ioos:station:SCCF:53:1,2009-11-03T21:00:00Z,26.6493,-81.8810,2.247,5.85,1111122 
SCCF RECON,ioos:station:SCCF:53:1,2009-11-03T22:00:00Z,26.6493,-81.8810,2.275,6.0,1111122 
SCCF RECON,ioos:station:SCCF:53:1,2009-11-03T23:00:00Z,26.6493,-81.8810,2.27,6.35,1111122 
SCCF RECON,ioos:station:SCCF:53:1,2009-11-04T00:00:00Z,26.6493,-81.8810,2.238,6.8,1111122 
SCCF RECON,ioos:station:SCCF:53:1,2009-11-04T01:00:00Z,26.6493,-81.8810,2.193,6.62,1111122 
SCCF RECON,ioos:station:SCCF:53:1,2009-11-04T02:00:00Z,26.6493,-81.8810,2.16,6.26,1111122 
SCCF RECON,ioos:station:SCCF:53:1,2009-11-04T03:00:00Z,26.6493,-81.8810,2.147,6.24,1111122 
SCCF RECON,ioos:station:SCCF:53:1,2009-11-04T04:00:00Z,26.6493,-81.8810,2.2,6.48,1111122 
SCCF RECON,ioos:station:SCCF:53:1,2009-11-04T05:00:00Z,26.6493,-81.8810,2.26,6.63,1111122 
SCCF RECON,ioos:station:SCCF:53:1,2009-11-04T06:00:00Z,26.6493,-81.8810,2.308,6.44,1111122 
SCCF RECON,ioos:station:SCCF:53:1,2009-11-04T07:00:00Z,26.6493,-81.8810,2.359,6.3,1111122 
SCCF RECON,ioos:station:SCCF:53:1,2009-11-04T08:00:00Z,26.6493,-81.8810,2.381,6.4,1111122 
SCCF RECON,ioos:station:SCCF:53:1,2009-11-04T09:00:00Z,26.6493,-81.8810,2.36,6.49,1111122 
SCCF RECON,ioos:station:SCCF:53:1,2009-11-04T10:00:00Z,26.6493,-81.8810,2.301,6.53,1111122 
SCCF RECON,ioos:station:SCCF:53:1,2009-11-04T11:00:00Z,26.6493,-81.8810,2.25,6.33,1111122 
SCCF RECON,ioos:station:SCCF:53:1,2009-11-04T12:00:00Z,26.6493,-81.8810,2.19,6.09,1111122 
SCCF RECON,ioos:station:SCCF:53:1,2009-11-04T13:00:00Z,26.6493,-81.8810,2.132,6.07,1111122 
SCCF RECON,ioos:station:SCCF:53:1,2009-11-04T14:00:00Z,26.6493,-81.8810,2.08,6.08,1111122 
SCCF RECON,ioos:station:SCCF:53:1,2009-11-04T15:00:00Z,26.6493,-81.8810,2.02,6.21,1111122 
SCCF RECON,ioos:station:SCCF:53:1,2009-11-04T16:00:00Z,26.6493,-81.8810,1.966,6.36,1111122 
SCCF RECON,ioos:station:SCCF:53:1,2009-11-04T17:00:00Z,26.6493,-81.8810,1.929,6.27,1111122 
SCCF RECON,ioos:station:SCCF:53:1,2009-11-04T18:00:00Z,26.6493,-81.8810,1.944,6.25,1111122 
SCCF RECON,ioos:station:SCCF:53:1,2009-11-04T19:00:00Z,26.6493,-81.8810,1.995,6.7,1111122 
SCCF RECON,ioos:station:SCCF:53:1,2009-11-04T20:00:00Z,26.6493,-81.8810,2.039,6.62,1111122 
SCCF RECON,ioos:station:SCCF:53:1,2009-11-04T21:00:00Z,26.6493,-81.8810,2.09,6.78,1111122 
SCCF RECON,ioos:station:SCCF:53:1,2009-11-04T22:00:00Z,26.6493,-81.8810,2.142,6.98,1111122 
SCCF RECON,ioos:station:SCCF:53:1,2009-11-04T23:00:00Z,26.6493,-81.8810,2.177,7.03,1111122 
SCCF RECON,ioos:station:SCCF:53:1,2009-11-05T00:00:00Z,26.6493,-81.8810,2.21,6.95,1111122 
SCCF RECON,ioos:station:SCCF:53:1,2009-11-05T01:00:00Z,26.6493,-81.8810,2.219,6.91,1111122 
SCCF RECON,ioos:station:SCCF:53:1,2009-11-05T02:00:00Z,26.6493,-81.8810,2.2,6.83,1111122 
SCCF RECON,ioos:station:SCCF:53:1,2009-11-05T03:00:00Z,26.6493,-81.8810,2.19,6.78,1111122 
SCCF RECON,ioos:station:SCCF:53:1,2009-11-05T04:00:00Z,26.6493,-81.8810,2.21,6.59,1111122 
SCCF RECON,ioos:station:SCCF:53:1,2009-11-05T05:00:00Z,26.6493,-81.8810,2.27,6.72,1111122 
SCCF RECON,ioos:station:SCCF:53:1,2009-11-05T06:00:00Z,26.6493,-81.8810,2.33,6.67,1111122 
SCCF RECON,ioos:station:SCCF:53:1,2009-11-05T07:00:00Z,26.6493,-81.8810,2.378,6.72,1111122 
SCCF RECON,ioos:station:SCCF:53:1,2009-11-05T08:00:00Z,26.6493,-81.8810,2.411,6.69,1111122 
SCCF RECON,ioos:station:SCCF:53:1,2009-11-05T09:00:00Z,26.6493,-81.8810,2.42,6.71,1111122 
SCCF RECON,ioos:station:SCCF:53:1,2009-11-05T10:00:00Z,26.6493,-81.8810,2.37,6.86,1111122 
SCCF RECON,ioos:station:SCCF:53:1,2009-11-05T11:00:00Z,26.6493,-81.8810,2.31,6.73,1111122 
SCCF RECON,ioos:station:SCCF:53:1,2009-11-05T12:00:00Z,26.6493,-81.8810,2.26,6.52,1111122 
SCCF RECON,ioos:station:SCCF:53:1,2009-11-05T13:00:00Z,26.6493,-81.8810,2.194,6.41,1111122 
SCCF RECON,ioos:station:SCCF:53:1,2009-11-05T14:00:00Z,26.6493,-81.8810,2.14,6.46,1111122 
SCCF RECON,ioos:station:SCCF:53:1,2009-11-05T15:00:00Z,26.6493,-81.8810,2.073,6.49,1111122 
SCCF RECON,ioos:station:SCCF:53:1,2009-11-05T16:00:00Z,26.6493,-81.8810,2.016,6.58,1111122 
SCCF RECON,ioos:station:SCCF:53:1,2009-11-05T17:00:00Z,26.6493,-81.8810,1.96,6.71,1111122 
SCCF RECON,ioos:station:SCCF:53:1,2009-11-05T18:00:00Z,26.6493,-81.8810,1.906,6.84,1111122 
SCCF RECON,ioos:station:SCCF:53:1,2009-11-05T19:00:00Z,26.6493,-81.8810,1.897,6.86,1111122 
SCCF RECON,ioos:station:SCCF:53:1,2009-11-05T20:00:00Z,26.6493,-81.8810,1.934,7.11,1111122 
SCCF RECON,ioos:station:SCCF:53:1,2009-11-05T21:00:00Z,26.6493,-81.8810,1.977,6.96,1111122 
SCCF RECON,ioos:station:SCCF:53:1,2009-11-05T22:00:00Z,26.6493,-81.8810,2.021,6.95,1111122 
SCCF RECON,ioos:station:SCCF:53:1,2009-11-05T23:00:00Z,26.6493,-81.8810,2.067,7.02,1111122 
SCCF RECON,ioos:station:SCCF:53:1,2009-11-06T00:00:00Z,26.6493,-81.8810,2.09,7.04,1111122 
SCCF RECON,ioos:station:SCCF:53:1,2009-11-06T01:00:00Z,26.6493,-81.8810,2.103,7.03,1111122 
SCCF RECON,ioos:station:SCCF:53:1,2009-11-06T02:00:00Z,26.6493,-81.8810,2.092,7.0,1111122 
SCCF RECON,ioos:station:SCCF:53:1,2009-11-06T03:00:00Z,26.6493,-81.8810,2.079,6.95,1111122 
SCCF RECON,ioos:station:SCCF:53:1,2009-11-06T04:00:00Z,26.6493,-81.8810,2.061,6.91,1111122 
SCCF RECON,ioos:station:SCCF:53:1,2009-11-06T05:00:00Z,26.6493,-81.8810,2.058,6.94,1111122 
SCCF RECON,ioos:station:SCCF:53:1,2009-11-06T06:00:00Z,26.6493,-81.8810,2.1,6.97,1111122 
SCCF RECON,ioos:station:SCCF:53:1,2009-11-06T07:00:00Z,26.6493,-81.8810,2.139,7.04,1111122 
SCCF RECON,ioos:station:SCCF:53:1,2009-11-06T08:00:00Z,26.6493,-81.8810,2.176,7.03,1111122 
SCCF RECON,ioos:station:SCCF:53:1,2009-11-06T09:00:00Z,26.6493,-81.8810,2.21,7.0,1111122 
SCCF RECON,ioos:station:SCCF:53:1,2009-11-06T10:00:00Z,26.6493,-81.8810,2.22,7.01,1111122 
SCCF RECON,ioos:station:SCCF:53:1,2009-11-06T11:00:00Z,26.6493,-81.8810,2.19,7.09,1111122 
SCCF RECON,ioos:station:SCCF:53:1,2009-11-06T12:00:00Z,26.6493,-81.8810,2.139,6.97,1111122 
SCCF RECON,ioos:station:SCCF:53:1,2009-11-06T13:00:00Z,26.6493,-81.8810,2.1,6.88,1111122 
SCCF RECON,ioos:station:SCCF:53:1,2009-11-06T14:00:00Z,26.6493,-81.8810,2.04,6.87,1111122 
SCCF RECON,ioos:station:SCCF:53:1,2009-11-06T15:00:00Z,26.6493,-81.8810,1.99,6.85,1111122 
SCCF RECON,ioos:station:SCCF:53:1,2009-11-06T16:00:00Z,26.6493,-81.8810,1.935,6.95,1111122 
SCCF RECON,ioos:station:SCCF:53:1,2009-11-06T17:00:00Z,26.6493,-81.8810,1.877,7.03,1111122 
SCCF RECON,ioos:station:SCCF:53:1,2009-11-06T18:00:00Z,26.6493,-81.8810,1.823,7.2,1111122 
SCCF RECON,ioos:station:SCCF:53:1,2009-11-06T19:00:00Z,26.6493,-81.8810,1.78,7.25,1111122 
SCCF RECON,ioos:station:SCCF:53:1,2009-11-06T20:00:00Z,26.6493,-81.8810,1.807,7.22,1111122 
SCCF RECON,ioos:station:SCCF:53:1,2009-11-06T21:00:00Z,26.6493,-81.8810,1.835,7.28,1111122 
SCCF RECON,ioos:station:SCCF:53:1,2009-11-06T22:00:00Z,26.6493,-81.8810,1.87,7.29,1111122 
SCCF RECON,ioos:station:SCCF:53:1,2009-11-06T23:00:00Z,26.6493,-81.8810,1.911,7.4,1111122 
SCCF RECON,ioos:station:SCCF:53:1,2009-11-07T00:00:00Z,26.6493,-81.8810,1.96,7.43,1111122 
SCCF RECON,ioos:station:SCCF:53:1,2009-11-07T01:00:00Z,26.6493,-81.8810,2.0,7.43,1111122 
SCCF RECON,ioos:station:SCCF:53:1,2009-11-07T02:00:00Z,26.6493,-81.8810,2.02,7.43,1111122 
SCCF RECON,ioos:station:SCCF:53:1,2009-11-07T03:00:00Z,26.6493,-81.8810,2.03,7.42,1111122 
SCCF RECON,ioos:station:SCCF:53:1,2009-11-07T04:00:00Z,26.6493,-81.8810,2.03,7.43,1111122 
SCCF RECON,ioos:station:SCCF:53:1,2009-11-07T05:00:00Z,26.6493,-81.8810,2.053,7.38,1111122 
SCCF RECON,ioos:station:SCCF:53:1,2009-11-07T06:00:00Z,26.6493,-81.8810,2.091,7.42,1111122 
SCCF RECON,ioos:station:SCCF:53:1,2009-11-07T07:00:00Z,26.6493,-81.8810,2.13,7.45,1111122 
SCCF RECON,ioos:station:SCCF:53:1,2009-11-07T08:00:00Z,26.6493,-81.8810,2.18,7.32,1111122 
SCCF RECON,ioos:station:SCCF:53:1,2009-11-07T09:00:00Z,26.6493,-81.8810,2.23,7.21,1111122 
SCCF RECON,ioos:station:SCCF:53:1,2009-11-07T10:00:00Z,26.6493,-81.8810,2.283,7.2,1111122 
SCCF RECON,ioos:station:SCCF:53:1,2009-11-07T11:00:00Z,26.6493,-81.8810,2.321,7.17,1111122 
SCCF RECON,ioos:station:SCCF:53:1,2009-11-07T12:00:00Z,26.6493,-81.8810,2.31,7.16,1111122 
SCCF RECON,ioos:station:SCCF:53:1,2009-11-07T13:00:00Z,26.6493,-81.8810,2.255,7.26,1111122 
SCCF RECON,ioos:station:SCCF:53:1,2009-11-07T14:00:00Z,26.6493,-81.8810,2.2,7.13,1111122 
SCCF RECON,ioos:station:SCCF:53:1,2009-11-07T15:00:00Z,26.6493,-81.8810,2.139,7.22,1111122 
SCCF RECON,ioos:station:SCCF:53:1,2009-11-07T16:00:00Z,26.6493,-81.8810,2.079,7.34,1111122 
SCCF RECON,ioos:station:SCCF:53:1,2009-11-07T17:00:00Z,26.6493,-81.8810,2.007,7.41,1111122 
SCCF RECON,ioos:station:SCCF:53:1,2009-11-07T18:00:00Z,26.6493,-81.8810,1.943,7.51,1111122 
SCCF RECON,ioos:station:SCCF:53:1,2009-11-07T19:00:00Z,26.6493,-81.8810,1.889,7.53,1111122 
SCCF RECON,ioos:station:SCCF:53:1,2009-11-07T20:00:00Z,26.6493,-81.8810,1.872,7.47,1111122 
SCCF RECON,ioos:station:SCCF:53:1,2009-11-07T21:00:00Z,26.6493,-81.8810,1.897,7.49,1111122 
SCCF RECON,ioos:station:SCCF:53:1,2009-11-07T22:00:00Z,26.6493,-81.8810,1.93,7.66,1111122 
SCCF RECON,ioos:station:SCCF:53:1,2009-11-07T23:00:00Z,26.6493,-81.8810,1.974,7.65,1111122 
SCCF RECON,ioos:station:SCCF:53:1,2009-11-08T00:00:00Z,26.6493,-81.8810,2.024,7.61,1111122 
SCCF RECON,ioos:station:SCCF:53:1,2009-11-08T01:00:00Z,26.6493,-81.8810,2.06,7.57,1111122 
SCCF RECON,ioos:station:SCCF:53:1,2009-11-08T02:00:00Z,26.6493,-81.8810,2.081,7.5,1111122 
SCCF RECON,ioos:station:SCCF:53:1,2009-11-08T03:00:00Z,26.6493,-81.8810,2.08,7.49,1111122 
SCCF RECON,ioos:station:SCCF:53:1,2009-11-08T04:00:00Z,26.6493,-81.8810,2.06,7.54,1111122 
SCCF RECON,ioos:station:SCCF:53:1,2009-11-08T05:00:00Z,26.6493,-81.8810,2.04,7.5,1111122 
SCCF RECON,ioos:station:SCCF:53:1,2009-11-08T06:00:00Z,26.6493,-81.8810,2.04,7.51,1111122 
SCCF RECON,ioos:station:SCCF:53:1,2009-11-08T07:00:00Z,26.6493,-81.8810,2.08,7.4,1111122 
SCCF RECON,ioos:station:SCCF:53:1,2009-11-08T08:00:00Z,26.6493,-81.8810,2.133,7.33,1111122 
SCCF RECON,ioos:station:SCCF:53:1,2009-11-08T09:00:00Z,26.6493,-81.8810,2.19,7.26,1111122 
SCCF RECON,ioos:station:SCCF:53:1,2009-11-08T10:00:00Z,26.6493,-81.8810,2.26,7.23,1111122 
SCCF RECON,ioos:station:SCCF:53:1,2009-11-08T11:00:00Z,26.6493,-81.8810,2.31,7.22,1111122 
SCCF RECON,ioos:station:SCCF:53:1,2009-11-08T12:00:00Z,26.6493,-81.8810,2.33,7.2,1111122 
SCCF RECON,ioos:station:SCCF:53:1,2009-11-08T13:00:00Z,26.6493,-81.8810,2.317,7.19,1111122 
SCCF RECON,ioos:station:SCCF:53:1,2009-11-08T14:00:00Z,26.6493,-81.8810,2.251,7.35,1111122 
SCCF RECON,ioos:station:SCCF:53:1,2009-11-08T15:00:00Z,26.6493,-81.8810,2.198,7.29,1111122 
SCCF RECON,ioos:station:SCCF:53:1,2009-11-08T16:00:00Z,26.6493,-81.8810,2.138,7.46,1111122 
SCCF RECON,ioos:station:SCCF:53:1,2009-11-08T17:00:00Z,26.6493,-81.8810,2.069,7.62,1111122 
SCCF RECON,ioos:station:SCCF:53:1,2009-11-08T18:00:00Z,26.6493,-81.8810,2.007,7.65,1111122 
SCCF RECON,ioos:station:SCCF:53:1,2009-11-08T19:00:00Z,26.6493,-81.8810,1.942,7.68,1111122 
SCCF RECON,ioos:station:SCCF:53:1,2009-11-08T20:00:00Z,26.6493,-81.8810,1.904,7.67,1111122 
SCCF RECON,ioos:station:SCCF:53:1,2009-11-08T21:00:00Z,26.6493,-81.8810,1.898,7.73,1111122 
SCCF RECON,ioos:station:SCCF:53:1,2009-11-08T22:00:00Z,26.6493,-81.8810,1.922,7.79,1111122 
SCCF RECON,ioos:station:SCCF:53:1,2009-11-08T23:00:00Z,26.6493,-81.8810,1.96,7.88,1111122 
SCCF RECON,ioos:station:SCCF:53:1,2009-11-09T00:00:00Z,26.6493,-81.8810,2.014,7.76,1111122 
SCCF RECON,ioos:station:SCCF:53:1,2009-11-09T01:00:00Z,26.6493,-81.8810,2.068,7.76,1111122 
SCCF RECON,ioos:station:SCCF:53:1,2009-11-09T02:00:00Z,26.6493,-81.8810,2.109,7.69,1111122 
SCCF RECON,ioos:station:SCCF:53:1,2009-11-09T03:00:00Z,26.6493,-81.8810,2.137,7.63,1111122 
SCCF RECON,ioos:station:SCCF:53:1,2009-11-09T04:00:00Z,26.6493,-81.8810,2.136,7.58,1111122 
SCCF RECON,ioos:station:SCCF:53:1,2009-11-09T05:00:00Z,26.6493,-81.8810,2.111,7.49,1111122 
SCCF RECON,ioos:station:SCCF:53:1,2009-11-09T06:00:00Z,26.6493,-81.8810,2.115,7.49,1111122 
SCCF RECON,ioos:station:SCCF:53:1,2009-11-09T07:00:00Z,26.6493,-81.8810,2.131,7.38,1111122 
SCCF RECON,ioos:station:SCCF:53:1,2009-11-09T08:00:00Z,26.6493,-81.8810,2.17,7.46,1111122 
SCCF RECON,ioos:station:SCCF:53:1,2009-11-09T09:00:00Z,26.6493,-81.8810,2.22,7.38,1111122 
SCCF RECON,ioos:station:SCCF:53:1,2009-11-09T10:00:00Z,26.6493,-81.8810,2.28,7.32,1111122 
SCCF RECON,ioos:station:SCCF:53:1,2009-11-09T11:00:00Z,26.6493,-81.8810,2.35,7.29,1111122 
SCCF RECON,ioos:station:SCCF:53:1,2009-11-09T12:00:00Z,26.6493,-81.8810,2.411,7.28,1111122 
SCCF RECON,ioos:station:SCCF:53:1,2009-11-09T13:00:00Z,26.6493,-81.8810,2.46,7.23,1111122 
SCCF RECON,ioos:station:SCCF:53:1,2009-11-09T14:00:00Z,26.6493,-81.8810,2.47,7.28,1111122 
SCCF RECON,ioos:station:SCCF:53:1,2009-11-09T15:00:00Z,26.6493,-81.8810,2.436,7.24,1111122 
SCCF RECON,ioos:station:SCCF:53:1,2009-11-09T16:00:00Z,26.6493,-81.8810,2.366,7.27,1111122 
SCCF RECON,ioos:station:SCCF:53:1,2009-11-09T17:00:00Z,26.6493,-81.8810,2.305,7.43,1111122 
SCCF RECON,ioos:station:SCCF:53:1,2009-11-09T18:00:00Z,26.6493,-81.8810,2.24,7.51,1111122 
SCCF RECON,ioos:station:SCCF:53:1,2009-11-09T19:00:00Z,26.6493,-81.8810,2.178,7.73,1111122 
SCCF RECON,ioos:station:SCCF:53:1,2009-11-09T20:00:00Z,26.6493,-81.8810,2.14,7.76,1111122 
SCCF RECON,ioos:station:SCCF:53:1,2009-11-09T21:00:00Z,26.6493,-81.8810,2.132,7.66,1111122 
SCCF RECON,ioos:station:SCCF:53:1,2009-11-09T22:00:00Z,26.6493,-81.8810,2.18,7.77,1111122 
SCCF RECON,ioos:station:SCCF:53:1,2009-11-09T23:00:00Z,26.6493,-81.8810,2.24,7.54,1111122 
SCCF RECON,ioos:station:SCCF:53:1,2009-11-10T00:00:00Z,26.6493,-81.8810,2.308,7.55,1111122 
SCCF RECON,ioos:station:SCCF:53:1,2009-11-10T01:00:00Z,26.6493,-81.8810,2.37,7.56,1111122 
SCCF RECON,ioos:station:SCCF:53:1,2009-11-10T02:00:00Z,26.6493,-81.8810,2.429,7.65,1111122 
SCCF RECON,ioos:station:SCCF:53:1,2009-11-10T03:00:00Z,26.6493,-81.8810,2.47,7.43,1111122 
SCCF RECON,ioos:station:SCCF:53:1,2009-11-10T04:00:00Z,26.6493,-81.8810,2.48,7.32,1111122 
SCCF RECON,ioos:station:SCCF:53:1,2009-11-10T05:00:00Z,26.6493,-81.8810,2.45,7.22,1111122 
SCCF RECON,ioos:station:SCCF:53:1,2009-11-10T06:00:00Z,26.6493,-81.8810,2.4,7.33,1111122 
SCCF RECON,ioos:station:SCCF:53:1,2009-11-10T07:00:00Z,26.6493,-81.8810,2.35,7.25,1111122 
SCCF RECON,ioos:station:SCCF:53:1,2009-11-10T08:00:00Z,26.6493,-81.8810,2.31,7.01,1111122 
SCCF RECON,ioos:station:SCCF:53:1,2009-11-10T09:00:00Z,26.6493,-81.8810,2.28,7.13,1111122 
SCCF RECON,ioos:station:SCCF:53:1,2009-11-10T10:00:00Z,26.6493,-81.8810,2.31,7.12,1111122 
SCCF RECON,ioos:station:SCCF:53:1,2009-11-10T11:00:00Z,26.6493,-81.8810,2.358,7.09,1111122 
SCCF RECON,ioos:station:SCCF:53:1,2009-11-10T12:00:00Z,26.6493,-81.8810,2.403,7.09,1111122 
SCCF RECON,ioos:station:SCCF:53:1,2009-11-10T13:00:00Z,26.6493,-81.8810,2.453,7.0,1111122 
SCCF RECON,ioos:station:SCCF:53:1,2009-11-10T14:00:00Z,26.6493,-81.8810,2.504,6.87,1111122 
SCCF RECON,ioos:station:SCCF:53:1,2009-11-10T15:00:00Z,26.6493,-81.8810,2.538,6.98,1111122 
SCCF RECON,ioos:station:SCCF:53:1,2009-11-10T16:00:00Z,26.6493,-81.8810,2.52,7.01,1111122 
SCCF RECON,ioos:station:SCCF:53:1,2009-11-10T17:00:00Z,26.6493,-81.8810,2.469,7.16,1111122 
SCCF RECON,ioos:station:SCCF:53:1,2009-11-10T18:00:00Z,26.6493,-81.8810,2.404,7.04,1111122 
SCCF RECON,ioos:station:SCCF:53:1,2009-11-10T19:00:00Z,26.6493,-81.8810,2.346,6.9,1111122 
SCCF RECON,ioos:station:SCCF:53:1,2009-11-10T20:00:00Z,26.6493,-81.8810,2.291,7.03,1111122 
SCCF RECON,ioos:station:SCCF:53:1,2009-11-10T21:00:00Z,26.6493,-81.8810,2.244,7.19,1111122 
SCCF RECON,ioos:station:SCCF:53:1,2009-11-10T22:00:00Z,26.6493,-81.8810,2.24,6.89,1111122 
SCCF RECON,ioos:station:SCCF:53:1,2009-11-10T23:00:00Z,26.6493,-81.8810,2.292,6.95,1111122 
SCCF RECON,ioos:station:SCCF:53:1,2009-11-11T00:00:00Z,26.6493,-81.8810,2.35,6.61,1111122 
SCCF RECON,ioos:station:SCCF:53:1,2009-11-11T01:00:00Z,26.6493,-81.8810,2.4,6.72,1111122 
SCCF RECON,ioos:station:SCCF:53:1,2009-11-11T02:00:00Z,26.6493,-81.8810,2.47,6.33,1111122 
SCCF RECON,ioos:station:SCCF:53:1,2009-11-11T03:00:00Z,26.6493,-81.8810,2.51,6.63,1111122 
SCCF RECON,ioos:station:SCCF:53:1,2009-11-11T04:00:00Z,26.6493,-81.8810,2.52,6.12,1111122 
SCCF RECON,ioos:station:SCCF:53:1,2009-11-11T05:00:00Z,26.6493,-81.8810,2.488,6.31,1111122 
SCCF RECON,ioos:station:SCCF:53:1,2009-11-11T06:00:00Z,26.6493,-81.8810,2.43,7.0,1111122 
SCCF RECON,ioos:station:SCCF:53:1,2009-11-11T07:00:00Z,26.6493,-81.8810,2.374,6.49,1111122 
SCCF RECON,ioos:station:SCCF:53:1,2009-11-11T08:00:00Z,26.6493,-81.8810,2.329,6.63,1111122 
SCCF RECON,ioos:station:SCCF:53:1,2009-11-11T09:00:00Z,26.6493,-81.8810,2.272,6.56,1111122 
SCCF RECON,ioos:station:SCCF:53:1,2009-11-11T10:00:00Z,26.6493,-81.8810,2.24,6.61,1111122 
SCCF RECON,ioos:station:SCCF:53:1,2009-11-11T11:00:00Z,26.6493,-81.8810,2.282,6.56,1111122 
SCCF RECON,ioos:station:SCCF:53:1,2009-11-11T12:00:00Z,26.6493,-81.8810,2.33,6.05,1111122 
SCCF RECON,ioos:station:SCCF:53:1,2009-11-11T13:00:00Z,26.6493,-81.8810,2.37,6.22,1111122 
SCCF RECON,ioos:station:SCCF:53:1,2009-11-11T14:00:00Z,26.6493,-81.8810,2.41,6.13,1111122 
SCCF RECON,ioos:station:SCCF:53:1,2009-11-11T15:00:00Z,26.6493,-81.8810,2.438,6.01,1111122 
SCCF RECON,ioos:station:SCCF:53:1,2009-11-11T16:00:00Z,26.6493,-81.8810,2.448,5.75,1111122 
SCCF RECON,ioos:station:SCCF:53:1,2009-11-11T17:00:00Z,26.6493,-81.8810,2.439,5.79,1111122 
SCCF RECON,ioos:station:SCCF:53:1,2009-11-11T18:00:00Z,26.6493,-81.8810,2.382,6.6,1111122 
SCCF RECON,ioos:station:SCCF:53:1,2009-11-11T19:00:00Z,26.6493,-81.8810,2.329,7.5,1111122 
SCCF RECON,ioos:station:SCCF:53:1,2009-11-11T20:00:00Z,26.6493,-81.8810,2.274,7.53,1111122 
SCCF RECON,ioos:station:SCCF:53:1,2009-11-11T21:00:00Z,26.6493,-81.8810,2.22,7.84,1111122 